Location: Unspecified
(47.0333°N, 0.0000°E)
Time: 04:14:21
(UTC+00:00)

OTV 5 (USA 277) - Pass Details

Date: 19 June 2019
Orbit: 299 x 335 km, 54.5° (Epoch: 13 July)

Event Time Altitude Azimuth Distance (km) Brightness Sun altitude
Exits shadow 23:00:39 68° 53° (NE) 363 ? -18.2°
Drops below altitude 10° 23:03:10 10° 57° (ENE) 1,268 ? -18.3°
Enters shadow 00:10:09 -46° 252° (WSW) 9,562 ? -19.5°
